Regional Weather Roundup
Issued by NWS Goodland, KS

Home | Current Version | Previous Version | Graphics & Text | Print | Product List | Glossary On
Versions: 1 2 3 4 5 6 7 8 9 10 11 12 13 14 15 16 17 18 19 20 21 22 23 24 25 26 27 28 29 30 31 32 33 34 35 36 37 38 39 40 41 42 43 44 45 46 47 48 49 50
000
ASUS43 KGLD 280308
RWRGLD

GOODLAND FORECAST AREA HOURLY WEATHER ROUNDUP
NATIONAL WEATHER SERVICE GOODLAND KS
800 PM MST THU NOV 27 2014

...OFFICIAL OBSERVATIONS...

CITY           SKY/WX    TMP DP  RH WIND       PRES   REMARKS
GOODLAND KS    MOCLDY    48  28  46 W13       30.05F
HILL CITY KS   CLEAR     44  25  47 SW10      30.06F
IMPERIAL NEB   CLEAR     42  27  55 W13       30.00F
MCCOOK NEB     CLEAR     41  26  55 SW10      29.98F
AKRON CO       CLEAR     42  27  55 W13       30.06F
BURLINGTON CO  MOCLDY    43  25  49 W10       30.08F
LIMON CO       PTCLDY    31  19  61 NW3       30.13F
$$

...UNOFFICIAL OBSERVATIONS...

CITY           SKY/WX    TMP DP  RH WIND       PRES   REMARKS
COLBY KS       CLEAR     41  30  65 SW7       30.04S
GOVE KS          N/A     38  32  79 MISG        N/A
NORTON KS      CLEAR     37  19  48 S7        30.01F
SHARON SPRINGS   N/A     41  27  57 SW12        N/A
TRIBUNE KS     PTCLDY    39  32  75 SW14      30.08F
TRENTON NEB      N/A     42  32  68 W7          N/A
YUMA CO          N/A     43  28  55 SW12        N/A
$$



USA.gov is the U.S. government's official web portal to all federal, state and local government web resources and services.